|
NORAD ID: 36290 Int'l Code: 2008-053L
Perigee: 576.0 km
Apogee: 606.4 km
Inclination: 97.6 °
Period: 96.4 minutes
Semi major axis: 6962 km
Launch date: October 25, 2008
Source: People's Republic of China (PRC)
Note: This is SATELLITE DEBRIS
Two Line Element Set (TLE):
1 36290U 08053L 13115.31468119 .00001355 00000-0 13031-3 0 1212
2 36290 097.5545 134.4107 0021855 216.9288 143.0429 14.94448503223680
Source:
NASA's NSSDC Master Catalog entry for CZ-4B DEB
|